Volver al catálogo

COSMOS 1867 COOLANT

ActivoLEO
NORAD 39677·DEBRIS·🇷🇺 Russia

Lanzado Jul 10, 1987 desde Baikonur Cosmodrome

Loading…

Próximos Pases (próximas 24 horas)

TLE

ActualizadoSource: Space-Track

Época: Sep 13, 2026, 15:27 UTC

1 39677U 87060AQ  26256.64395874  .00000136  00000-0  84852-4 0  9991
2 39677  65.0036 121.4962 0018641 281.4135  78.4856 14.33864241649242

Sigue COSMOS 1867 COOLANT en tiempo real con AllMySat

Download on the App Store